Poplar Bluff, MO

10:14 PM CDT on August 24, 2019 (GMT -0500)
Poplar Bluff Municipal

Weather History for KPOF - June, 2019

Change the Weather History Date:

Saturday, June 1, 2019

  Actual Average Record
Temperature  
Mean Temperature 74 °F -  
Max Temperature 84 °F 80 °F 100 °F (1934)
Min Temperature 63 °F 59 °F 42 °F (1930)
Cooling Degree Days 8    
Growing Degree Days 24 (Base 50)    
Moisture  
Dew Point 66 °F    
Average Humidity 77    
Maximum Humidity 97    
Minimum Humidity 55    
Precipitation  
Precipitation 0.00 in - - ()
Sea Level Pressure  
Sea Level Pressure 29.89 in    
Wind  
Wind Speed 3 mph (SW)    
Max Wind Speed 9 mph    
Max Gust Speed -    
Visibility 10 miles    
Events      
Averages and records for this station are not official NWS values.
T = Trace of Precipitation, MM = Missing Value Source: NWS Daily Summary

Daily Weather History Graph

Daily Weather History Graph

Search for Another Location

Airport or City:

Astronomy

Jun. 01, 2019 Rise Set
Actual Time 5:43 AM CDT 8:14 PM CDT
Civil Twilight 5:13 AM CDT 8:44 PM CDT
Nautical Twilight 4:36 AM CDT 9:22 PM CDT
Astronomical Twilight 3:55 AM CDT 10:03 PM CDT
Moon 4:44 AM CDT (6/1) 6:31 PM CDT (6/1)
Length of Visible Light 15h 30m
Length of Day
14h 30m
Waning Crescent, 4% of the Moon is Illuminated
Jun 1
Waning Crescent
Jun 3
New
Jun 10
First Quarter
Jun 17
Full
Jun 25
Last Quarter

Hourly Weather History & Observations

Time (CDT) Temp. Heat Index Dew Point Humidity Pressure Visibility Wind Dir Wind Speed Gust Speed Precip Events Conditions
12:53 AM 66.9 °F - 64.0 °F 90% 29.91 in 10.0 mi NW 4.6 mph - N/A   Clear
1:53 AM 66.9 °F - 64.0 °F 90% 29.91 in 10.0 mi Calm Calm - N/A   Clear
2:53 AM 66.0 °F - 64.0 °F 93% 29.90 in 10.0 mi Calm Calm - N/A   Clear
3:53 AM 64.0 °F - 63.0 °F 96% 29.91 in 10.0 mi Calm Calm - N/A   Clear
4:53 AM 64.0 °F - 63.0 °F 96% 29.92 in 10.0 mi Calm Calm - N/A   Clear
5:53 AM 63.0 °F - 62.1 °F 97% 29.93 in 10.0 mi Calm Calm - N/A   Clear
6:53 AM 64.9 °F - 63.0 °F 93% 29.94 in 10.0 mi Calm Calm - N/A   Clear
7:53 AM 68.0 °F - 64.0 °F 87% 29.95 in 10.0 mi Calm Calm - N/A   Clear
8:53 AM 73.0 °F - 66.0 °F 79% 29.95 in 10.0 mi Calm Calm - N/A   Clear
9:53 AM 77.0 °F - 64.9 °F 66% 29.94 in 10.0 mi Variable 3.5 mph - N/A   Clear
10:53 AM 78.1 °F - 64.9 °F 64% 29.93 in 10.0 mi SSW 4.6 mph - N/A   Clear
11:53 AM 80.1 °F 81.9 °F 64.9 °F 60% 29.93 in 10.0 mi WSW 8.1 mph - N/A   Clear
12:53 PM 82.0 °F 83.8 °F 64.9 °F 56% 29.91 in 10.0 mi WSW 4.6 mph - N/A   Partly Cloudy
1:53 PM 84.0 °F 86.3 °F 66.0 °F 55% 29.90 in 10.0 mi WSW 6.9 mph - N/A   Clear
2:53 PM 84.0 °F 86.3 °F 66.0 °F 55% 29.88 in 10.0 mi West 9.2 mph - N/A   Mostly Cloudy
3:53 PM 84.9 °F 87.6 °F 66.9 °F 55% 29.86 in 10.0 mi West 8.1 mph - N/A   Partly Cloudy
4:53 PM 84.0 °F 87.0 °F 68.0 °F 58% 29.86 in 10.0 mi WSW 4.6 mph - N/A   Partly Cloudy
5:53 PM 84.0 °F 87.0 °F 68.0 °F 58% 29.83 in 10.0 mi SW 8.1 mph - N/A   Clear
6:53 PM 82.0 °F 85.5 °F 69.1 °F 65% 29.82 in 10.0 mi SSW 5.8 mph - N/A   Clear
7:53 PM 78.1 °F - 71.1 °F 79% 29.81 in 10.0 mi SSW 4.6 mph - N/A   Clear
8:53 PM 77.0 °F - 71.1 °F 82% 29.82 in 10.0 mi Calm Calm - N/A   Clear
9:53 PM 75.0 °F - 73.0 °F 94% 29.84 in 10.0 mi Calm Calm - N/A   Clear
10:53 PM 73.9 °F - 72.0 °F 93% 29.79 in 10.0 mi South 4.6 mph - N/A   Clear
11:53 PM 73.0 °F - 72.0 °F 96% 29.81 in 10.0 mi SSW 3.5 mph - N/A   Clear